Troy, MI

2:04 AM EST on December 17, 2017 (GMT -0500)
Troy

Weather History for KVLL - October, 2012

Change the Weather History Date:

Wednesday, October 3, 2012

  Actual Average (KDET) Record (KDET)
Temperature  
Mean Temperature 63 °F -  
Max Temperature 67 °F 67 °F 89 °F (1953)
Min Temperature 59 °F 50 °F 33 °F (1974)
Degree Days  
Heating Degree Days 2    
Growing Degree Days 13 (Base 50)    
Moisture  
Dew Point 56 °F    
Average Humidity 78    
Maximum Humidity 94    
Minimum Humidity 63    
Precipitation  
Precipitation 0.00 in - - ()
Sea Level Pressure  
Sea Level Pressure 30.02 in    
Wind  
Wind Speed 3 mph (SSW)    
Max Wind Speed 13 mph    
Max Gust Speed 17 mph    
Visibility 8 miles    
Events Rain    
Averages and records for this station are not official NWS values.
T = Trace of Precipitation, MM = Missing Value Source: NWS Daily Summary

Daily Weather History Graph

Daily Weather History Graph

Search for Another Location

Airport or City:

Trip Planner

Search our weather history database for the weather conditions in past years. The results will help you decide how hot, cold, wet, or windy it might be!

Date:

Astronomy

Oct. 03, 2012 Rise Set
Actual Time 7:32 AM EDT 7:09 PM EDT
Civil Twilight 7:04 AM EDT 7:37 PM EDT
Nautical Twilight 6:31 AM EDT 8:10 PM EDT
Astronomical Twilight 5:58 AM EDT 8:43 PM EDT
Moon 8:56 PM EDT (10/3) 11:00 AM EDT (10/3)
Length of Visible Light 12h 33m
Length of Day
11h 37m
Waning Gibbous, 89% of the Moon is Illuminated
Oct 3
Waning Gibbous
Oct 8
Last Quarter
Oct 15
New
Oct 21
First Quarter
Oct 29
Full

Hourly Weather History & Observations

Time (EDT) Temp. Dew Point Humidity Pressure Visibility Wind Dir Wind Speed Gust Speed Precip Events Conditions
12:15 AM 60.1 °F 52.7 °F 77% 29.94 in 10.0 mi Calm Calm - N/A   Overcast
12:34 AM 60.1 °F 53.8 °F 80% 29.94 in 10.0 mi NNE 3.5 mph - N/A   Overcast
12:55 AM 60.3 °F 54.0 °F 80% 29.93 in 10.0 mi North 4.6 mph - N/A   Overcast
1:15 AM 60.8 °F 54.5 °F 80% 29.93 in 10.0 mi Calm Calm - N/A   Overcast
1:34 AM 60.8 °F 54.0 °F 78% 29.93 in 10.0 mi Calm Calm - N/A   Overcast
1:55 AM 60.8 °F 54.1 °F 79% 29.94 in 10.0 mi Calm Calm - N/A   Overcast
2:14 AM 61.0 °F 54.5 °F 79% 29.93 in 10.0 mi Calm Calm - N/A   Overcast
2:35 AM 60.8 °F 54.9 °F 81% 29.93 in 10.0 mi North 3.5 mph - N/A   Overcast
2:55 AM 61.2 °F 55.2 °F 81% 29.94 in 10.0 mi Calm Calm - N/A   Overcast
3:14 AM 61.3 °F 55.4 °F 81% 29.94 in 10.0 mi Calm Calm - N/A   Overcast
3:35 AM 61.7 °F 55.4 °F 80% 29.95 in 10.0 mi NE 3.5 mph - N/A   Overcast
3:55 AM 61.7 °F 55.6 °F 80% 29.94 in 10.0 mi Calm Calm - N/A   Overcast
4:15 AM 61.2 °F 55.6 °F 82% 29.94 in 10.0 mi Calm Calm - N/A   Overcast
4:35 AM 61.2 °F 55.6 °F 82% 29.95 in 10.0 mi NNE 3.5 mph - N/A   Overcast
4:55 AM 61.3 °F 55.6 °F 81% 29.95 in 10.0 mi Calm Calm - N/A   Overcast
5:15 AM 61.3 °F 55.6 °F 81% 29.96 in 10.0 mi NE 3.5 mph - N/A   Overcast
5:35 AM 60.4 °F 56.7 °F 87% 29.96 in 5.0 mi NE 3.5 mph - N/A Rain Rain
5:55 AM 59.9 °F 56.7 °F 89% 29.97 in 7.0 mi Calm Calm - N/A   Overcast
6:15 AM 60.1 °F 57.2 °F 90% 29.98 in 7.0 mi Calm Calm - N/A   Overcast
6:55 AM 59.9 °F 56.8 °F 90% 29.99 in 2.5 mi NNE 4.6 mph - N/A Rain Heavy Rain
7:15 AM 59.4 °F 57.0 °F 92% 29.99 in 3.0 mi NE 3.5 mph - N/A   Overcast
7:34 AM 59.2 °F 57.2 °F 93% 30.00 in 2.5 mi Calm Calm - N/A   Overcast
7:55 AM 59.2 °F 57.2 °F 93% 30.00 in 1.2 mi Calm Calm - N/A   Drizzle
8:15 AM 59.2 °F 57.2 °F 93% 30.01 in 1.2 mi Calm Calm - N/A   Overcast
8:34 AM 59.2 °F 57.4 °F 94% 30.01 in 1.2 mi Calm Calm - N/A   Overcast
8:55 AM 59.5 °F 57.7 °F 94% 30.02 in 1.2 mi Calm Calm - N/A   Overcast
9:15 AM 59.9 °F 58.1 °F 94% 30.02 in 1.5 mi Calm Calm - N/A   Overcast
9:34 AM 60.4 °F 58.6 °F 94% 30.02 in 1.8 mi Calm Calm - N/A   Overcast
9:55 AM 61.2 °F 59.0 °F 93% 30.02 in 2.0 mi Calm Calm - N/A   Overcast
10:14 AM 61.7 °F 59.0 °F 91% 30.02 in 2.5 mi Calm Calm - N/A   Overcast
10:35 AM 62.1 °F 59.4 °F 91% 30.02 in 3.0 mi Calm Calm - N/A   Overcast
10:55 AM 62.6 °F 59.5 °F 90% 30.03 in 4.0 mi SSW 3.5 mph - N/A   Overcast
11:15 AM 63.1 °F 59.9 °F 89% 30.03 in 4.0 mi SSW 4.6 mph - N/A   Overcast
11:35 AM 63.5 °F 59.4 °F 86% 30.03 in 5.0 mi SW 4.6 mph - N/A   Haze
11:55 AM 65.7 °F 59.5 °F 81% 30.03 in 7.0 mi SW 9.2 mph - N/A   Overcast
12:15 PM 65.3 °F 58.5 °F 78% 30.04 in 7.0 mi SW 11.5 mph - N/A   Overcast
12:35 PM 66.4 °F 57.4 °F 73% 30.03 in 10.0 mi SW 8.1 mph - N/A   Overcast
12:54 PM 67.5 °F 56.7 °F 68% 30.03 in 10.0 mi WSW 10.4 mph - N/A   Overcast
1:15 PM 66.6 °F 55.6 °F 68% 30.04 in 10.0 mi WSW 6.9 mph - N/A   Overcast
1:35 PM 67.3 °F 56.3 °F 68% 30.03 in 10.0 mi SW 9.2 mph - N/A   Overcast
1:54 PM 67.5 °F 55.6 °F 66% 30.02 in 10.0 mi SSW 9.2 mph - N/A   Overcast
2:15 PM 67.6 °F 55.6 °F 65% 30.03 in 10.0 mi SSW 8.1 mph - N/A   Overcast
2:35 PM 67.5 °F 55.0 °F 64% 30.03 in 10.0 mi SSW 9.2 mph - N/A   Overcast
2:54 PM 66.4 °F 54.1 °F 65% 30.03 in 10.0 mi SW 10.4 mph - N/A   Overcast
3:15 PM 66.4 °F 53.6 °F 63% 30.03 in 10.0 mi South 10.4 mph - N/A   Overcast
3:35 PM 66.4 °F 53.6 °F 63% 30.04 in 10.0 mi South 12.7 mph - N/A   Overcast
3:55 PM 65.7 °F 53.2 °F 64% 30.03 in 10.0 mi SSW 8.1 mph - N/A   Overcast
4:15 PM 66.0 °F 53.4 °F 64% 30.03 in 10.0 mi SW 10.4 mph 16.1 mph N/A   Overcast
4:34 PM 65.7 °F 53.1 °F 64% 30.04 in 10.0 mi SSW 10.4 mph - N/A   Overcast
4:55 PM 65.3 °F 53.6 °F 66% 30.05 in 10.0 mi SSW 10.4 mph 16.1 mph N/A   Overcast
5:15 PM 64.6 °F 53.8 °F 68% 30.05 in 10.0 mi SSW 12.7 mph 16.1 mph N/A   Overcast
5:34 PM 63.5 °F 54.0 °F 71% 30.06 in 10.0 mi SSW 6.9 mph 17.3 mph N/A   Overcast
5:55 PM 63.5 °F 54.0 °F 71% 30.06 in 10.0 mi SW 6.9 mph - N/A   Overcast
6:15 PM 63.5 °F 53.8 °F 71% 30.06 in 10.0 mi SSW 3.5 mph - N/A   Overcast
6:55 PM 63.3 °F 53.6 °F 71% 30.08 in 10.0 mi SSW 5.8 mph - N/A   Overcast
7:15 PM 63.5 °F 53.2 °F 69% 30.07 in 10.0 mi SSW 5.8 mph - N/A   Overcast
7:35 PM 63.5 °F 53.2 °F 69% 30.08 in 10.0 mi SSW 5.8 mph - N/A   Overcast
7:55 PM 63.5 °F 53.2 °F 69% 30.08 in 10.0 mi South 5.8 mph - N/A   Overcast
8:15 PM 63.0 °F 54.3 °F 73% 30.08 in 10.0 mi South 4.6 mph - N/A   Overcast
8:35 PM 62.8 °F 54.9 °F 75% 30.08 in 10.0 mi South 3.5 mph - N/A   Overcast
8:54 PM 62.6 °F 54.7 °F 75% 30.09 in 10.0 mi South 4.6 mph - N/A   Overcast
9:15 PM 62.8 °F 54.7 °F 75% 30.09 in 10.0 mi South 4.6 mph - N/A   Overcast
9:35 PM 63.0 °F 54.7 °F 74% 30.09 in 10.0 mi South 5.8 mph - N/A   Overcast
9:55 PM 63.0 °F 54.7 °F 74% 30.10 in 10.0 mi South 4.6 mph - N/A   Overcast
10:15 PM 63.0 °F 54.5 °F 74% 30.10 in 10.0 mi South 5.8 mph - N/A   Overcast
10:34 PM 63.0 °F 54.5 °F 74% 30.10 in 10.0 mi SSW 3.5 mph - N/A   Overcast
10:55 PM 62.6 °F 54.1 °F 74% 30.10 in 10.0 mi SSW 4.6 mph - N/A   Mostly Cloudy
11:15 PM 62.2 °F 54.5 °F 76% 30.11 in 10.0 mi South 3.5 mph - N/A   Overcast
11:34 PM 61.7 °F 54.5 °F 77% 30.11 in 10.0 mi South 3.5 mph - N/A   Mostly Cloudy
11:55 PM 61.0 °F 54.5 °F 79% 30.10 in 10.0 mi South 3.5 mph - N/A   Scattered Clouds